Weather History for Pope Field Airport, NC

Change the Weather History Date:

Thursday, December 20, 2012

  Actual Average Record
Temperature  
Mean Temperature 51 °F -  
Max Temperature 66 °F 51 °F 72 °F (2008)
Min Temperature 36 °F 34 °F 14 °F (2004)
Degree Days  
Heating Degree Days 14    
Growing Degree Days 1 (Base 50)    
Moisture  
Dew Point 54 °F    
Average Humidity 86    
Maximum Humidity 97    
Minimum Humidity 57    
Precipitation  
Precipitation 0.47 in - - ()
Sea Level Pressure  
Sea Level Pressure 29.71 in    
Wind  
Wind Speed 9 mph (SSW)    
Max Wind Speed 29 mph    
Max Gust Speed 40 mph    
Visibility 9 miles    
Events Rain    
Averages and records for this station are not official NWS values.
T = Trace of Precipitation, MM = Missing Value Source: NWS Daily Summary

Daily Weather History Graph

Daily Weather History Graph

Search for Another Location

Airport:

Trip Planner

Search our weather history database for the weather conditions in past years. The results will help you decide how hot, cold, wet, or windy it might be!

Date:

Astronomy

Dec. 20, 2012 Rise Set
Actual Time 7:20 AM EST 5:07 PM EST
Civil Twilight 6:52 AM EST 5:35 PM EST
Nautical Twilight 6:20 AM EST 6:07 PM EST
Astronomical Twilight 5:49 AM EST 6:38 PM EST
Moon 12:14 PM EST (12/20) 12:17 AM EST (12/20)
Length of Visible Light 10h 43m
Length of Day
9h 47m
First Quarter, 55% of the Moon is Illuminated
Dec 20
First Quarter
Dec 28
Full
Jan 4
Last Quarter
Jan 11
New
Jan 18
First Quarter

Hourly Weather History & Observations

Time (EST) Temp. Windchill Dew Point Humidity Pressure Visibility Wind Dir Wind Speed Gust Speed Precip Events Conditions
12:55 AM 39.7 °F - 38.5 °F 95% 30.12 in 10.0 mi Calm Calm - N/A   Clear
1:55 AM 39.4 °F - 37.8 °F 94% 30.13 in 10.0 mi Calm Calm - N/A   Clear
2:55 AM 37.8 °F - 36.7 °F 96% 30.14 in 10.0 mi Calm Calm - N/A   Clear
3:55 AM 36.3 °F - 35.6 °F 97% 30.14 in 10.0 mi Calm Calm - N/A   Clear
4:55 AM 36.3 °F - 35.2 °F 96% 30.15 in 10.0 mi Calm Calm - N/A   Clear
5:55 AM 37.0 °F 34.5 °F 36.1 °F 97% 30.16 in 10.0 mi East 3.5 mph - N/A   Clear
6:55 AM 38.3 °F 34.8 °F 37.0 °F 95% 30.15 in 10.0 mi ENE 4.6 mph - N/A   Clear
7:55 AM 40.3 °F 37.1 °F 38.7 °F 94% 30.14 in 10.0 mi ENE 4.6 mph - N/A   Clear
8:55 AM 44.1 °F 40.8 °F 41.5 °F 91% 30.12 in 10.0 mi East 5.8 mph - N/A   Clear
9:55 AM 48.4 °F - 44.1 °F 85% 30.10 in 10.0 mi Variable 6.9 mph - N/A   Clear
10:55 AM 51.6 °F - 45.5 °F 80% 30.08 in 10.0 mi Variable 5.8 mph - N/A   Partly Cloudy
12:55 PM 59.5 °F - 46.9 °F 63% 29.98 in 10.0 mi South 9.2 mph - N/A   Clear
1:55 PM 64.0 °F - 48.7 °F 57% 29.91 in 10.0 mi SSE 10.4 mph 17.3 mph N/A   Clear
2:55 PM 63.3 °F - 50.4 °F 63% 29.88 in 10.0 mi SSE 4.6 mph - N/A   Mostly Cloudy
3:55 PM 62.6 °F - 52.3 °F 69% 29.84 in 10.0 mi ESE 5.8 mph - N/A   Mostly Cloudy
4:55 PM 62.1 °F - 53.6 °F 74% 29.79 in 10.0 mi ESE 5.8 mph - N/A   Mostly Cloudy
5:55 PM 65.3 °F - 53.8 °F 66% 29.75 in 10.0 mi South 11.5 mph 17.3 mph 0.00 in Rain Light Rain
6:05 PM 66.2 °F - 53.6 °F 64% 29.75 in 10.0 mi South 5.8 mph - N/A   Mostly Cloudy
6:30 PM 66.2 °F - 55.4 °F 68% 29.75 in 10.0 mi SSW 11.5 mph 19.6 mph N/A Rain Light Rain
6:40 PM 64.4 °F - 55.4 °F 73% 29.75 in 10.0 mi South 13.8 mph 20.7 mph N/A   Overcast
6:52 PM 66.2 °F - 55.4 °F 68% 29.74 in 10.0 mi South 11.5 mph 21.9 mph N/A Rain Light Rain
6:55 PM 65.3 °F - 56.3 °F 73% 29.73 in 10.0 mi South 10.4 mph 21.9 mph 0.00 in Rain Light Rain
7:55 PM 62.6 °F - 58.8 °F 87% 29.65 in 10.0 mi South 11.5 mph 19.6 mph 0.04 in Rain Light Rain
8:45 PM 62.6 °F - 60.8 °F 94% 29.60 in 9.0 mi South 13.8 mph 24.2 mph N/A Rain Light Rain
8:53 PM 62.6 °F - 60.8 °F 94% 29.59 in 7.0 mi South 12.7 mph 23.0 mph N/A Rain Rain
8:54 PM 62.6 °F - 60.8 °F 94% 29.59 in 7.0 mi South 17.3 mph 26.5 mph N/A Rain Light Rain
8:55 PM 63.0 °F - 60.4 °F 91% 29.59 in 7.0 mi South 17.3 mph 26.5 mph 0.08 in Rain Light Rain
9:15 PM 62.6 °F - 60.8 °F 94% 29.57 in 6.0 mi SSW 16.1 mph 25.3 mph N/A Rain Heavy Rain
9:16 PM 62.6 °F - 60.8 °F 94% 29.57 in 5.0 mi South 17.3 mph 25.3 mph N/A Rain Heavy Rain
9:17 PM 62.6 °F - 60.8 °F 94% 29.56 in 5.0 mi South 13.8 mph 25.3 mph N/A Rain Heavy Rain
9:26 PM 62.6 °F - 60.8 °F 94% 29.57 in 8.0 mi South 16.1 mph 26.5 mph N/A Rain Light Rain
9:43 PM 62.6 °F - 60.8 °F 94% 29.55 in 6.0 mi South 12.7 mph 28.8 mph N/A Rain Heavy Rain
9:46 PM 62.6 °F - 60.8 °F 94% 29.55 in 5.0 mi South 17.3 mph 26.5 mph N/A Rain Heavy Rain
9:55 PM 63.3 °F - 61.3 °F 93% 29.54 in 6.0 mi SSW 16.1 mph 26.5 mph 0.24 in Rain Rain
9:58 PM 62.6 °F - 60.8 °F 94% 29.54 in 6.0 mi SSW 20.7 mph 31.1 mph N/A Rain Light Rain
10:01 PM 64.4 °F - 60.8 °F 88% 29.53 in 6.0 mi SSW 18.4 mph 31.1 mph N/A Rain Light Rain
10:05 PM 64.4 °F - 60.8 °F 88% 29.53 in 6.0 mi SSW 18.4 mph 31.1 mph N/A Rain Light Rain
10:07 PM 64.4 °F - 60.8 °F 88% 29.53 in 6.0 mi SSW 18.4 mph 31.1 mph N/A Rain Rain
10:08 PM 64.4 °F - 60.8 °F 88% 29.53 in 7.0 mi South 20.7 mph 29.9 mph N/A Rain Light Rain
10:09 PM 64.4 °F - 60.8 °F 88% 29.53 in 7.0 mi South 19.6 mph 29.9 mph N/A Rain Light Rain
10:13 PM 64.4 °F - 60.8 °F 88% 29.52 in 8.0 mi SSW 17.3 mph 29.9 mph N/A   Overcast
10:16 PM 64.4 °F - 60.8 °F 88% 29.52 in 9.0 mi South 17.3 mph 29.9 mph N/A   Overcast
10:17 PM 64.4 °F - 60.8 °F 88% 29.52 in 9.0 mi SSW 15.0 mph 29.9 mph N/A Rain Light Rain
10:18 PM 64.4 °F - 60.8 °F 88% 29.52 in 9.0 mi SSW 17.3 mph 29.9 mph N/A Rain Light Rain
10:24 PM 64.4 °F - 60.8 °F 88% 29.52 in 10.0 mi SSW 15.0 mph 28.8 mph N/A Rain Light Rain
10:30 PM 64.4 °F - 60.8 °F 88% 29.51 in 10.0 mi SSW 18.4 mph 26.5 mph N/A   Overcast
10:46 PM 64.4 °F - 62.6 °F 94% 29.50 in 10.0 mi SSW 17.3 mph 28.8 mph N/A Rain Light Rain
10:55 PM 64.2 °F - 61.9 °F 92% 29.50 in 10.0 mi SSW 15.0 mph 26.5 mph 0.06 in Rain Light Rain
10:59 PM 64.4 °F - 62.6 °F 94% 29.51 in 9.0 mi SSW 16.1 mph 26.5 mph N/A Rain Light Rain
11:16 PM 64.4 °F - 59.0 °F 83% 29.51 in 10.0 mi WSW 25.3 mph 40.3 mph N/A   Light Drizzle
11:25 PM 62.6 °F - 59.0 °F 88% 29.52 in 10.0 mi WSW 19.6 mph 32.2 mph N/A Rain Light Rain
11:42 PM 62.6 °F - 59.0 °F 88% 29.53 in 10.0 mi West 26.5 mph 36.8 mph N/A Rain Light Rain
11:48 PM 60.8 °F - 55.4 °F 82% 29.53 in 10.0 mi West 28.8 mph 38.0 mph N/A   Light Drizzle
11:52 PM 59.0 °F - 53.6 °F 82% 29.54 in 10.0 mi West 25.3 mph 38.0 mph N/A   Overcast
11:54 PM 59.0 °F - 53.6 °F 82% 29.54 in 10.0 mi West 23.0 mph 35.7 mph N/A   Overcast
11:55 PM 59.0 °F - 52.3 °F 79% 29.54 in 10.0 mi West 19.6 mph 35.7 mph 0.05 in   Overcast
11:57 PM 59.0 °F - 51.8 °F 77% 29.54 in 10.0 mi West 19.6 mph 29.9 mph N/A   Overcast